Regional Weather Roundup
Issued by NWS San Diego, CA

Home | Current Version | Previous Version | Text Only | Print | Product List | Glossary On
Versions: 1 2 3 4 5 6 7 8 9 10 11 12 13 14 15 16 17 18 19 20 21 22 23 24 25 26 27 28 29 30 31 32 33 34 35 36 37 38 39 40 41 42 43 44 45 46 47 48 49 50
000
ASUS46 KSGX 260510
RWRSGX

SAN DIEGO HOURLY WEATHER ROUNDUP
NATIONAL WEATHER SERVICE SAN DIEGO CA
1000 PM PDT SAT OCT 25 2014

NOTE: "FAIR" INDICATES FEW OR NO CLOUDS BELOW 12,000 FEET WITH NO
SIGNIFICANT WEATHER AND/OR OBSTRUCTIONS TO VISIBILITY.

CAZ042-043-060-061-PZZ750-775-260600-

GREATER SAN DIEGO AREA

CITY           SKY/WX    TMP DP  RH WIND       PRES   REMARKS
LINDBERGH FLD  PTCLDY    69  62  78 CALM      30.04R
POINT LOMA       N/A     66  62  87 NW6         N/A
NATIONAL CITY    N/A     68  63  84 CALM      30.03S
CHULA VISTA      N/A     66  63  89 CALM      29.97R
IMPERIAL BEACH CLEAR     59  57  93 CALM      30.03S
BROWN FIELD    CLOUDY    65  62  90 CALM      30.03S
MIRAMAR MCAS   PTCLDY    62  57  83 CALM      30.03S
MONTGOMERY FLD CLEAR     67  61  81 CALM      30.03S

$$

NORTH SAN DIEGO COUNTY

CITY           SKY/WX    TMP DP  RH WIND       PRES   REMARKS
CAMP PENDLETON CLEAR     64  58  80 CALM      30.02R
OCEANSIDE AP   CLEAR     63  59  87 CALM      30.01R
OCEANSIDE HBR    N/A     66  61  83 N3        30.04R
VISTA            N/A     65  60  84 CALM      30.00S
CARLSBAD       CLOUDY    68  62  81 SW6       30.02R
DEL MAR          N/A     66  63  91 CALM      30.05R
FALLBROOK        N/A     65  64  99 CALM      30.02S
ESCONDIDO        N/A     65  60  82 CALM      30.04S
SAN MARCOS       N/A     65  60  84 CALM      30.00S
POWAY            N/A     62  58  86 CALM      30.04R

$$

EAST SAN DIEGO COUNTY

CITY           SKY/WX    TMP DP  RH WIND       PRES   REMARKS
RAMONA         CLEAR     58  55  90 CALM        N/A
SANTEE LAKES     N/A     63  59  88 CALM      30.04R
LA MESA          N/A     66  63  90 CALM      29.97R
JAMUL            N/A     64  61  91 CALM      30.01S
DESCANSO N       N/A     54  46  75 CALM      29.90S
MT. LAGUNA OBS   N/A     55  44  66 NW2       29.76S
CAMPO            N/A     55  51  86 NE5       30.05R

$$

ORANGE COUNTY AND THE LOS ANGELES BASIN

CITY           SKY/WX    TMP DP  RH WIND       PRES   REMARKS
JOHN WAYNE AP  CLEAR     71  60  68 CALM      30.01S
LAKE FOREST FR   N/A     64  52  64 CALM      29.93R
SANTA ANA        N/A     68  60  75 CALM      29.97S
HUNTINGTON BCH   N/A     64  61  91 CALM      30.04S
LOS ALAMITOS   FAIR      67  61  80 W6        30.01S
FULLERTON      CLEAR     68  60  75 CALM      30.00S
LONG BEACH     CLEAR     69  62  78 W6        30.01S
L.A. AP        CLEAR     69  62  78 W9        30.01R
L.A. DOWNTOWN  CLEAR     68  60  75 CALM      30.00S

$$

THE INLAND EMPIRE

CITY           SKY/WX    TMP DP  RH WIND       PRES   REMARKS
CORONA         MOCLDY    68  50  52 CALM      30.02R
CHINO          CLEAR     63  51  65 W3        30.03R
ONTARIO        CLEAR     66  50  56 W5        30.02R
RIVERSIDE AP   CLEAR     67  52  58 N3        30.03R
RIV CYN CREST    N/A     67  59  73 CALM      30.01R
MORENO VALLEY    N/A     67  50  56 CALM      29.21S
MARCH ARB      CLEAR     64  51  62 W3        30.04S
HORSETHIEF CYN   N/A     66  49  54 CALM      30.02S
PERRIS           N/A     66  52  60 CALM      30.01R
MENIFEE          N/A     66  57  73 CALM      30.09S
HEMET EAST       N/A     64  43  45 CALM      30.00S
FRENCH VALLEY  FAIR      63  55  77 S3        30.05R
TEMECULA         N/A     65  59  82 S1        30.01R

$$

SAN BERNARDINO AND RIVERSIDE COUNTY MOUNTAINS

CITY           SKY/WX    TMP DP  RH WIND       PRES   REMARKS
BIG BEAR AP    CLEAR     48  39  71 W10G17    30.23F
PINE COVE        N/A     52  43  72 N2        29.91S

$$

SOUTHERN DESERT INCLUDING THE COACHELLA VALLEY

CITY           SKY/WX    TMP DP  RH WIND       PRES   REMARKS
PALM SPRINGS   CLEAR     83  46  27 NW6       29.92S
THOUSAND PALMS   N/A     82  47  29 NW13      29.87R
PALM DESERT      N/A     78  52  39 CALM      31.28S
THERMAL        CLEAR     82  49  31 N16       29.86R
BLYTHE         CLEAR     82  49  31 W6        29.87R
IMPERIAL AP    CLEAR     77  57  50 W9        29.86R
EL CENTRO NAS  CLEAR     79  54  41 W8        29.87R
YUMA AZ        CLEAR     80  56  43 S3        29.88R
MEXICALI       CLEAR     82  48  30 W3        29.88R

$$

UPPER DESERT

CITY           SKY/WX    TMP DP  RH WIND       PRES   REMARKS
VICTORVILLE AP CLEAR     63  39  42 SW8       30.08R
HESPERIA         N/A     65  44  46 W2        30.07R
APPLE VALLEY     N/A     64  39  39 CALM      30.12S
PALMDALE       CLEAR     61  38  42 W8        30.08R
LANCASTER      CLEAR     60  38  43 W10       30.07S
EDWARDS AFB    PTCLDY    59  35  41 W6        30.05R
DAGGETT        CLEAR     73  42  32 W18       30.01R
29 PALMS N     CLEAR     69  43  38 NW6       30.07R
NEEDLES        CLEAR     81  44  27 W10       29.89R

$$

REGIONAL REPORTS

CITY           SKY/WX    TMP DP  RH WIND       PRES   REMARKS
SANTA BARBARA  PTCLDY    67  55  65 CALM      30.00R
SANDBERG       CLEAR     55  40  56 NW21G31   30.16R
MT. WILSON       N/A    N/A N/A N/A MISG        N/A
LAS VEGAS NV   PTCLDY    76  40  27 S14       29.91R
PHOENIX AZ     CLEAR     84  51  31 CALM      29.90R
TIJUANA        CLOUDY    66  59  77 CALM      30.06S
ENSENADA NW      N/A     68  32  26 NE7       30.00S

$$

OFFSHORE ISLANDS

CITY           SKY/WX    TMP DP  RH WIND       PRES   REMARKS
CATALINA ARPT  MOCLDY    60  58  92 W10       30.06S FOG
SAN NICOLAS IS CLEAR    N/A N/A N/A NW20      30.05R

$$

MARINE AND OFFSHORE BUOY REPORTS

STATION/POSITION SKY/WX   TEMP    WIND        PRES    SWELL
                          AIR SEA DIR/SP/G            HT/PER/DIR
                          (F)     (DEG/KT/KT) (MB)    (FT/S/D)
TANNER BANKS               66 68  320/ 16/ 17 1017.6R   7/320/14
S CLEMENTE BASIN           69 71  330/  2/  6 1016.8R   5/300/12
SAN NICOLAS IS.               67                N/A     5/290/13
SO. S. ROSA ISLA           66 69  320/ 19/ 23 1016.9R   7/11
W. S. BARBARA CH           64 64  320/ 16/ 19 1017.2R   8/300/13
M. S. BARBARA CH           66 67  290/ 12/ 16 1016.2
S. MONICA BASIN            67 69  280/ 12/ 14 1015.9R   3/280/11
S PEDRO CHANNEL               69                N/A     2/250/13
DANA POINT                    69                N/A     2/200/15
CMP PENDLETON NS              70                N/A     2/220/14
OCEANSIDE OFFSHR              71                N/A     2/200/15
TORREY PINES OTR              71                N/A     2/260/11
LA JOLLA 1                 69 71  310/  6/  8 1016.8S
MISSION BAY BUOY              72                N/A     2/220/14
SAN DIEGO BAY                 74              1017.4F
POINT LOMA SOUTH              71                N/A     3/280/12

$$




USA.gov is the U.S. government's official web portal to all federal, state and local government web resources and services.